Kejimkujik, Nova Scotia

5:33 AM ADT on May 27, 2017 (GMT -0300)
Kejimkujik

Weather History for CWKG - December, 2012

Change the Weather History Date:

Thursday, December 6, 2012

  Actual Average (CYZX) Record (CYZX)
Temperature  
Mean Temperature 28 °F -  
Max Temperature 35 °F 37 °F 60 °F (1999)
Min Temperature 21 °F 24 °F 12 °F (2002)
Degree Days  
Heating Degree Days 36    
Moisture  
Dew Point 24 °F    
Average Humidity 82    
Maximum Humidity 98    
Minimum Humidity 63    
Precipitation  
Precipitation 0.00 in - - ()
Sea Level Pressure  
Sea Level Pressure 30.18 in    
Wind  
Wind Speed 5 mph ()    
Max Wind Speed 8 mph    
Max Gust Speed 24 mph    
Averages and records for this station are not official NWS values.
T = Trace of Precipitation, MM = Missing Value Source: Averaged Metar Reports

Daily Weather History Graph

Daily Weather History Graph

Search for Another Location

Airport or City:

Trip Planner

Search our weather history database for the weather conditions in past years. The results will help you decide how hot, cold, wet, or windy it might be!

Date:

Astronomy

Dec. 06, 2012 Rise Set
Actual Time 7:42 AM AST 4:41 PM AST
Civil Twilight 7:09 AM AST 5:14 PM AST
Nautical Twilight 6:33 AM AST 5:50 PM AST
Astronomical Twilight 5:57 AM AST 6:26 PM AST
Moon No Moon Rise 12:20 PM AST (12/6)
Length of Visible Light 10h 04m
Length of Day
8h 58m
Waning Gibbous, 50% of the Moon is Illuminated
Dec 6
Waning Gibbous
Dec 13
New
Dec 20
First Quarter
Dec 28
Full
Jan 4
Last Quarter

Hourly Weather History & Observations

Time (AST) Temp. Windchill Dew Point Humidity Pressure Visibility Wind Dir Wind Speed Gust Speed Precip Events Conditions
12:00 AM 35.4 °F 31.5 °F 34.2 °F 95% 29.95 in - North 4.6 mph - N/A   Unknown
1:00 AM 35.4 °F 31.5 °F 34.0 °F 94% 29.96 in - North 4.6 mph - N/A   Unknown
2:00 AM 34 °F - 34 °F 98% 29.99 in - North 5.8 mph - -  
2:00 AM 34.3 °F 29.2 °F 33.6 °F 97% 29.99 in - North 5.8 mph - N/A   Unknown
3:00 AM 31.8 °F 24.6 °F 28.6 °F 88% 30.02 in - North 8.1 mph 24.2 mph N/A   Unknown
4:00 AM 30.4 °F 25.6 °F 27.3 °F 88% 30.04 in - North 4.6 mph - N/A   Unknown
5:00 AM 30.2 °F 24.3 °F 26.4 °F 86% 30.05 in - North 5.8 mph - N/A   Unknown
6:00 AM 30.0 °F 24.1 °F 24.8 °F 81% 30.08 in - North 5.8 mph - N/A   Unknown
7:00 AM 29.8 °F 23.0 °F 24.1 °F 79% 30.10 in - North 6.9 mph 21.9 mph N/A   Unknown
8:00 AM 30 °F - 23 °F 67% 30.13 in - North 6.9 mph - -  
8:00 AM 29.7 °F 22.8 °F 23.4 °F 77% 30.13 in - North 6.9 mph - N/A   Unknown
9:00 AM 29.8 °F 23.9 °F 23.4 °F 77% 30.15 in - North 5.8 mph - N/A   Unknown
10:00 AM 29.5 °F 22.5 °F 22.8 °F 76% 30.19 in - NNE 6.9 mph - N/A   Unknown
11:00 AM 29.8 °F 23.0 °F 22.5 °F 74% 30.20 in - NNE 6.9 mph - N/A   Unknown
12:00 PM 30.2 °F 22.6 °F 22.3 °F 72% 30.21 in - North 8.1 mph 19.6 mph N/A   Unknown
1:00 PM 30.4 °F 22.9 °F 23.2 °F 75% 30.21 in - North 8.1 mph 18.4 mph N/A   Unknown
2:00 PM 31 °F - 23 °F 63% 30.22 in - North 8.1 mph - -  
2:00 PM 30.6 °F 23.1 °F 23.2 °F 74% 30.22 in - North 8.1 mph 17.3 mph N/A   Unknown
3:00 PM 29.8 °F 23.9 °F 21.9 °F 72% 30.23 in - North 5.8 mph - N/A   Unknown
4:00 PM 28.8 °F 22.6 °F 21.2 °F 73% 30.26 in - North 5.8 mph - N/A   Unknown
5:00 PM 27.7 °F 22.4 °F 21.2 °F 77% 30.29 in - North 4.6 mph - N/A   Unknown
6:00 PM 26.8 °F - 20.8 °F 78% 30.31 in - NNE 2.3 mph - N/A   Unknown
7:00 PM 25.7 °F 21.5 °F 22.1 °F 86% 30.32 in - North 3.5 mph - N/A   Unknown
8:00 PM 24 °F - 21 °F 81% 30.35 in - North 2.3 mph - -  
8:00 PM 24.3 °F - 20.7 °F 86% 30.35 in - North 2.3 mph - N/A   Unknown
9:00 PM 23.4 °F - 20.5 °F 89% 30.36 in - NNW 2.3 mph - N/A   Unknown
10:00 PM 22.3 °F - 20.1 °F 91% 30.37 in - North 2.3 mph - N/A   Unknown
11:00 PM 21.4 °F - 19.8 °F 93% 30.38 in - NNW 2.3 mph - N/A   Unknown